User: anonymous   Login
Location: Unspecified
(0.0000°N, 0.0000°E)
Time: 06:52:34
(UTC+01:00)
Language:

Orbus 21S - Orbit

View from above orbital plane
View from above orbital plane
View from above satellite
View from above satellite

Ground track
Ground track

The orbit data is extracted from the following two-line orbital elements,

1 20669U 90056C   17016.44428994  .00000896  00000-0  28157-3 0  9991
2 20669  23.9771 150.9105 7122629 273.6719  14.7737  2.47771595223642
Epoch (UTC): 16 January 2017 10:39:46
Eccentricity: 0.7122629
inclination: 23.9771°
perigee height: 260 km
apogee height: 33122 km
right ascension of ascending node: 150.9105°
argument of perigee: 273.6719°
revolutions per day: 2.47771595
mean anomaly at epoch: 14.7737°
orbit number at epoch: 22364

The dashed part of the orbit path shows where the satellite is in the earth's shadow,  

DLR